Niagara Falls, NY

3:31 PM EST on December 17, 2017 (GMT -0500)
Niagara Falls International

Weather History for KIAG - March, 2013

Change the Weather History Date:

Saturday, March 23, 2013

  Actual Average Record
Temperature  
Mean Temperature 32 °F -  
Max Temperature 39 °F 41 °F 69 °F (2012)
Min Temperature 26 °F 26 °F 13 °F (1992)
Degree Days  
Heating Degree Days 32    
Moisture  
Dew Point 22 °F    
Average Humidity 70    
Maximum Humidity 81    
Minimum Humidity 46    
Precipitation  
Precipitation 0.00 in - - ()
Snow  
Snow 0.00 in - - ()
Snow Depth 1.00 in    
Sea Level Pressure  
Sea Level Pressure 30.00 in    
Wind  
Wind Speed 11 mph (WNW)    
Max Wind Speed 17 mph    
Max Gust Speed 20 mph    
Visibility 10 miles    
Events      
Averages and records for this station are not official NWS values.
T = Trace of Precipitation, MM = Missing Value Source: NWS Daily Summary

Daily Weather History Graph

Daily Weather History Graph

Search for Another Location

Airport or City:

Trip Planner

Search our weather history database for the weather conditions in past years. The results will help you decide how hot, cold, wet, or windy it might be!

Date:

Astronomy

Mar. 23, 2013 Rise Set
Actual Time 7:13 AM EDT 7:31 PM EDT
Civil Twilight 6:44 AM EDT 8:00 PM EDT
Nautical Twilight 6:11 AM EDT 8:33 PM EDT
Astronomical Twilight 5:37 AM EDT 9:08 PM EDT
Moon 3:52 PM EDT (3/23) 4:54 AM EDT (3/23)
Length of Visible Light 13h 15m
Length of Day
12h 18m
Waxing Gibbous, 85% of the Moon is Illuminated
Mar 23
Waxing Gibbous
Mar 27
Full
Apr 3
Last Quarter
Apr 10
New
Apr 18
First Quarter

Hourly Weather History & Observations

Time (EDT) Temp. Windchill Dew Point Humidity Pressure Visibility Wind Dir Wind Speed Gust Speed Precip Events Conditions
12:22 AM 28.4 °F 19.1 °F 23.0 °F 80% 29.94 in 10.0 mi WSW 10.4 mph - N/A   Overcast
12:53 AM 28.0 °F 18.6 °F 21.9 °F 78% 29.98 in 10.0 mi WSW 10.4 mph - N/A   Mostly Cloudy
1:02 AM 26.6 °F 16.8 °F 21.2 °F 80% 29.94 in 10.0 mi West 10.4 mph - N/A   Scattered Clouds
1:21 AM 28.4 °F 19.1 °F 21.2 °F 74% 29.94 in 10.0 mi WSW 10.4 mph - N/A   Mostly Cloudy
1:53 AM 28.0 °F 18.6 °F 21.9 °F 78% 29.99 in 9.0 mi WSW 10.4 mph - N/A   Overcast
2:33 AM 26.6 °F 16.8 °F 21.2 °F 80% 29.94 in 10.0 mi WSW 10.4 mph - N/A   Scattered Clouds
2:53 AM 26.1 °F 15.6 °F 21.0 °F 81% 29.99 in 10.0 mi West 11.5 mph - N/A   Scattered Clouds
3:53 AM 28.0 °F 18.6 °F 21.0 °F 75% 29.97 in 10.0 mi West 10.4 mph - N/A   Overcast
4:53 AM 27.0 °F 16.7 °F 21.0 °F 78% 29.97 in 10.0 mi West 11.5 mph - N/A   Overcast
5:31 AM 28.4 °F 19.7 °F 21.2 °F 74% 29.93 in 10.0 mi West 9.2 mph - N/A   Overcast
5:53 AM 28.9 °F 20.4 °F 21.9 °F 75% 29.98 in 10.0 mi West 9.2 mph - N/A   Overcast
6:53 AM 28.9 °F 19.2 °F 21.9 °F 75% 29.99 in 10.0 mi West 11.5 mph - N/A   Overcast
6:59 AM 28.4 °F 19.1 °F 21.2 °F 74% 29.95 in 10.0 mi West 10.4 mph - N/A   Mostly Cloudy
7:53 AM 28.0 °F 19.3 °F 23.0 °F 81% 30.00 in 10.0 mi West 9.2 mph - N/A   Mostly Cloudy
8:53 AM 30.0 °F 20.5 °F 24.1 °F 79% 30.00 in 10.0 mi WNW 11.5 mph - N/A   Mostly Cloudy
9:53 AM 30.9 °F 21.7 °F 25.0 °F 79% 30.01 in 10.0 mi WNW 11.5 mph - N/A   Mostly Cloudy
10:11 AM 30.2 °F 20.8 °F 24.8 °F 80% 29.96 in 10.0 mi WNW 11.5 mph - N/A   Mostly Cloudy
10:53 AM 32.0 °F 23.0 °F 24.1 °F 73% 30.02 in 10.0 mi NNW 11.5 mph - N/A   Mostly Cloudy
11:53 AM 33.1 °F 24.4 °F 23.0 °F 66% 30.03 in 10.0 mi WNW 11.5 mph - N/A   Mostly Cloudy
12:53 PM 34.0 °F 25.0 °F 21.9 °F 61% 30.04 in 10.0 mi NW 12.7 mph - N/A   Mostly Cloudy
1:53 PM 36.0 °F 26.7 °F 23.0 °F 59% 30.03 in 10.0 mi WNW 15.0 mph - N/A   Mostly Cloudy
2:53 PM 37.9 °F 29.2 °F 23.0 °F 55% 30.02 in 10.0 mi WNW 15.0 mph - N/A   Mostly Cloudy
3:53 PM 39.0 °F 31.0 °F 21.9 °F 50% 30.02 in 10.0 mi WNW 13.8 mph 19.6 mph N/A   Mostly Cloudy
4:53 PM 39.0 °F 31.0 °F 19.9 °F 46% 30.02 in 10.0 mi WNW 13.8 mph - N/A   Mostly Cloudy
5:53 PM 37.9 °F 28.5 °F 21.9 °F 53% 30.02 in 10.0 mi WNW 17.3 mph - N/A   Scattered Clouds
6:53 PM 36.0 °F 28.0 °F 21.0 °F 55% 30.03 in 10.0 mi WNW 11.5 mph - N/A   Scattered Clouds
7:53 PM 34.0 °F 26.6 °F 23.0 °F 64% 30.05 in 10.0 mi WNW 9.2 mph - N/A   Mostly Cloudy
8:53 PM 34.0 °F 24.6 °F 21.9 °F 61% 30.06 in 10.0 mi WNW 13.8 mph - N/A   Scattered Clouds
9:53 PM 33.1 °F 23.9 °F 21.9 °F 64% 30.06 in 10.0 mi WNW 12.7 mph - N/A   Mostly Cloudy
10:53 PM 32.0 °F 24.2 °F 21.9 °F 66% 30.06 in 10.0 mi NW 9.2 mph - N/A   Scattered Clouds
11:53 PM 28.0 °F 20.0 °F 21.9 °F 78% 30.07 in 10.0 mi WNW 8.1 mph - N/A   Clear